STARLINK-2417

operational
NORAD ID: 48096 Int'l Des: 2021-027 Owner: SPXS Country: US Constellation: starlink
LEOCIRCULARSTARLINK_TYPE

关于 STARLINK-2417

正在加载描述...

实时位置

正在加载3D地球...

即将过境

高度历史

Altitude vs Time

uPlot chart will show altitude changes over time

两行轨道根数

1 48096U 21027E 25251.75915637 .00000346 00000-0 42100-4 0 9991
2 48096 53.0539 268.3359 0001308 89.3342 270.7797 15.06393325244995
Epoch: Sep 8, 2025 • Age: 16 hours

当前状态

高度 548.2 km
速度 7.59 km/s
星下点 -0.25°S, 124.33°E
发射日期 Apr 7, 2021
运行时间 4.4 years
类型 internet

技术详情

分类 Payload
质量 260.00 kg
干质量 248.00 kg
总质量 260.00 kg
长度 0.20 m
直径 2.80 m
跨度 9.00 m
形状 Box + pan
制造商 SPXS
平台类型 Starlink
阶段状态 In Orbit
所有者/国家 SPXS/US

大型星座

Loading constellations...